Total_Precipitation_Accumulation
0.00 0.00 0.02 0.01 0.00 0.00 0.00 0.00 0.00 0.00 0.00 0.01 0.02 0.02 0.00 0.00 0.00 0.00 0.00 0.00 0.01 0.01 0.01 0.01 0.01 0.01 0.01 0.01 0.01 0.01 0.01 0.00 0.01 0.01 0.02 0.02 0.04 0.05 0.09 0.06 0.12 0.16 0.08
0.00 0.00 0.02 0.01 0.00 0.00 0.00 0.00 0.00 0.00 0.00 0.00 0.00 0.01 0.00 0.00 0.00 0.00 0.00 0.01 0.01 0.01 0.01 0.01 0.01 0.01 0.01 0.01 0.01 0.01 0.00 0.00 0.00 0.01 0.01 0.02 0.06 0.11 0.11 0.04 0.11 0.14 0.06
0.00 0.00 0.01 0.01 0.00 0.00 0.00 0.00 0.00 0.00 0.00 0.00 0.00 0.00 0.00 0.00 0.00 0.00 0.00 0.01 0.01 0.01 0.00 0.00 0.00 0.00 0.00 0.00 0.00 0.00 0.00 0.00 0.01 0.01 0.02 0.03 0.03 0.08 0.11 0.04 0.03 0.04 0.04
0.00 0.00 0.00 0.01 0.00 0.00 0.00 0.00 0.00 0.00 0.00 0.00 0.00 0.00 0.00 0.00 0.00 0.01 0.01 0.01 0.01 0.01 0.00 0.00 0.00 0.00 0.00 0.00 0.00 0.00 0.00 0.00 0.01 0.01 0.05 0.10 0.03 0.03 0.06 0.05 0.04 0.04 0.04
0.00 0.00 0.00 0.00 0.00 0.00 0.00 0.00 0.00 0.00 0.00 0.00 0.00 0.00 0.00 0.01 0.01 0.01 0.01 0.01 0.01 0.01 0.00 0.00 0.00 0.00 0.00 0.01 0.02 0.01 0.00 0.00 0.00 0.01 0.03 0.09 0.09 0.05 0.04 0.06 0.05 0.04 0.04
0.00 0.00 0.00 0.00 0.00 0.00 0.00 0.00 0.00 0.00 0.00 0.01 0.00 0.00 0.00 0.01 0.01 0.01 0.01 0.01 0.01 0.01 0.00 0.01 0.00 0.00 0.00 0.01 0.01 0.01 0.01 0.01 0.01 0.02 0.02 0.04 0.12 0.12 0.09 0.15 0.18 0.14 0.07
0.00 0.00 0.00 0.00 0.00 0.00 0.00 0.00 0.00 0.01 0.00 0.00 0.00 0.00 0.00 0.00 0.01 0.01 0.01 0.00 0.01 0.01 0.00 0.01 0.01 0.01 0.01 0.00 0.00 0.01 0.00 0.00 0.02 0.03 0.03 0.04 0.09 0.10 0.17 0.32 0.43 0.36 0.25
0.00 0.00 0.00 0.01 0.00 0.00 0.00 0.00 0.00 0.00 0.00 0.00 0.00 0.00 0.00 0.00 0.01 0.02 0.02 0.01 0.01 0.01 0.02 0.01 0.01 0.01 0.01 0.02 0.02 0.02 0.02 0.01 0.01 0.01 0.02 0.03 0.05 0.09 0.26 0.45 0.56 0.57 0.51
0.00 0.00 0.00 0.00 0.00 0.00 0.00 0.00 0.00 0.00 0.00 0.00 0.00 0.01 0.01 0.01 0.02 0.04 0.05 0.05 0.04 0.03 0.04 0.02 0.01 0.01 0.02 0.03 0.03 0.03 0.03 0.03 0.02 0.02 0.02 0.04 0.06 0.15 0.41 0.58 0.64 0.70 0.72
0.00 0.00 0.00 0.01 0.00 0.00 0.00 0.00 0.00 0.00 0.01 0.00 0.01 0.01 0.01 0.01 0.03 0.04 0.05 0.07 0.10 0.10 0.10 0.08 0.05 0.03 0.04 0.04 0.02 0.02 0.03 0.04 0.02 0.03 0.05 0.05 0.07 0.23 0.46 0.61 0.77 0.83 0.80
0.01 0.01 0.01 0.01 0.01 0.01 0.01 0.01 0.01 0.02 0.02 0.01 0.02 0.02 0.02 0.02 0.03 0.09 0.13 0.18 0.20 0.21 0.20 0.16 0.12 0.12 0.12 0.07 0.07 0.12 0.10 0.04 0.03 0.05 0.04 0.05 0.10 0.29 0.51 0.68 0.83 0.88 0.85
0.01 0.01 0.01 0.01 0.02 0.02 0.01 0.02 0.02 0.02 0.04 0.04 0.05 0.09 0.12 0.17 0.15 0.09 0.18 0.34 0.39 0.47 0.43 0.40 0.41 0.31 0.21 0.16 0.44 0.66 0.22 0.14 0.14 0.10 0.09 0.17 0.30 0.45 0.66 0.71 0.74 0.78 0.76
0.01 0.01 0.01 0.02 0.03 0.03 0.02 0.02 0.03 0.03 0.09 0.09 0.09 0.16 0.27 0.27 0.19 0.15 0.17 0.31 0.44 0.49 0.40 0.57 0.70 0.47 0.43 0.55 0.73 0.74 0.39 0.33 0.21 0.16 0.16 0.27 0.47 0.69 0.88 0.81 0.74 0.70 0.70
0.02 0.02 0.02 0.02 0.03 0.04 0.04 0.04 0.05 0.06 0.09 0.10 0.15 0.18 0.27 0.30 0.25 0.22 0.25 0.26 0.31 0.38 0.54 0.67 0.76 0.71 0.72 0.70 0.78 0.68 0.59 0.57 0.40 0.43 0.39 0.42 0.51 0.63 0.93 0.99 0.82 0.75 0.71
0.04 0.06 0.06 0.05 0.07 0.11 0.13 0.14 0.12 0.13 0.16 0.18 0.22 0.25 0.29 0.38 0.35 0.35 0.34 0.34 0.31 0.40 0.58 0.74 0.74 0.81 0.90 0.88 0.77 0.70 0.71 0.73 0.71 0.81 0.59 0.54 0.55 0.61 0.89 0.99 0.88 0.80 0.73
0.14 0.20 0.25 0.25 0.29 0.32 0.33 0.33 0.30 0.31 0.34 0.34 0.38 0.38 0.41 0.48 0.53 0.53 0.46 0.48 0.43 0.48 0.58 0.74 0.79 0.97 0.96 0.98 0.77 0.72 0.73 0.77 0.77 0.85 0.76 0.74 0.64 0.61 0.73 0.83 0.88 0.84 0.77
0.32 0.43 0.58 0.71 0.78 0.77 0.69 0.58 0.55 0.60 0.64 0.64 0.65 0.68 0.73 0.76 0.79 0.78 0.66 0.60 0.69 0.77 0.80 0.85 0.92 1.04 0.99 0.94 0.75 0.78 0.75 0.69 0.65 0.66 0.65 0.69 0.70 0.66 0.65 0.67 0.75 0.74 0.74
0.50 0.67 0.96 1.31 1.38 1.29 1.16 1.03 0.95 0.94 0.95 0.95 0.96 1.02 1.07 1.07 1.03 0.95 0.75 0.68 0.95 1.00 1.00 1.07 1.09 1.14 1.23 1.22 0.98 0.86 0.81 0.71 0.57 0.55 0.52 0.55 0.59 0.52 0.52 0.62 0.67 0.67 0.76
0.84 1.22 1.72 1.91 1.97 1.98 1.76 1.58 1.47 1.40 1.30 1.25 1.31 1.23 1.24 1.29 1.20 1.17 0.88 0.81 1.09 1.20 1.16 1.13 1.28 1.44 1.41 1.42 1.20 0.98 0.80 0.66 0.52 0.48 0.44 0.41 0.43 0.44 0.44 0.46 0.46 0.54 0.78
1.30 1.80 2.18 2.42 2.58 2.55 2.50 2.27 1.93 1.69 1.48 1.45 1.41 1.27 1.17 1.11 1.19 1.35 1.03 0.99 1.22 1.24 1.18 1.29 1.41 1.53 1.42 1.48 1.34 0.92 0.71 0.51 0.46 0.37 0.33 0.30 0.26 0.27 0.31 0.39 0.48 0.50 0.69
1.56 1.91 2.38 2.67 2.74 2.72 2.74 2.46 2.06 1.70 1.53 1.40 1.29 1.19 1.17 1.19 1.27 1.48 1.23 1.20 1.25 1.15 1.09 1.27 1.38 1.31 1.19 1.56 1.48 0.90 0.51 0.37 0.28 0.18 0.20 0.19 0.16 0.17 0.25 0.38 0.48 0.54 0.54
1.40 1.77 2.11 2.16 1.98 1.86 1.84 1.82 1.69 1.62 1.48 1.35 1.31 1.33 1.28 1.30 1.33 1.38 1.33 1.22 1.19 1.12 0.97 0.99 1.17 1.08 0.86 1.25 1.38 1.23 0.71 0.37 0.23 0.13 0.15 0.15 0.18 0.24 0.30 0.33 0.39 0.51 0.54
1.21 1.37 1.50 1.39 1.27 1.24 1.33 1.43 1.48 1.59 1.51 1.50 1.56 1.60 1.46 1.47 1.44 1.48 1.35 1.20 1.12 1.10 0.92 0.85 0.99 1.03 0.85 0.94 1.25 1.48 1.05 0.53 0.37 0.19 0.22 0.27 0.34 0.42 0.44 0.47 0.50 0.54 0.59
0.97 1.05 1.20 1.18 1.13 1.21 1.43 1.52 1.56 1.70 1.82 1.96 2.15 2.09 1.93 1.76 1.62 1.52 1.32 1.13 0.96 0.93 0.83 0.78 0.86 0.93 0.95 0.77 0.87 1.02 1.02 0.91 0.75 0.40 0.26 0.33 0.48 0.54 0.55 0.60 0.57 0.56 0.62
0.83 0.87 1.06 1.18 1.31 1.50 1.68 1.78 1.87 1.95 2.03 2.03 2.05 1.95 1.83 1.74 1.60 1.43 1.27 1.11 0.99 0.88 0.79 0.75 0.73 0.74 0.77 0.70 0.71 0.74 0.83 0.86 0.82 0.68 0.45 0.46 0.48 0.40 0.40 0.45 0.56 0.71 0.71
1.07 1.00 1.05 1.21 1.39 1.55 1.64 1.72 1.74 1.72 1.69 1.60 1.49 1.38 1.30 1.26 1.21 1.14 1.05 0.92 0.84 0.81 0.78 0.73 0.68 0.65 0.64 0.66 0.67 0.67 0.74 0.81 0.90 0.93 0.76 0.65 0.57 0.50 0.48 0.46 0.52 0.67 0.72